DW4776 Weather Reports


Display with metric or nautical units.
time (UTC)temp
F
wind
direction
speed
MPH
gust
MPH
rain 1hr
in
rain 24hr
in
rain mn
in
humidity
%
barometer
mb
20260901060045 60 203 2.0 7.0 0.00 0.00 0.00 47 1015.0
20260901054544 60 163 3.0 8.0 0.00 0.00 0.00 47 1014.9
20260901053055 59 351 1.0 3.0 0.00 0.00 0.00 49 1014.9
20260901051545 59 134 1.0 4.0 0.00 0.00 0.00 49 1014.9
20260901050045 59 0 0.0 2.0 0.00 0.00 0.00 50 1015.0
20260901044543 59 0 0.0 1.0 0.00 0.00 0.00 50 1015.0
20260901043045 59 0 0.0 2.0 0.00 0.00 0.00 50 1015.0
20260901041543 59 0 1.0 3.0 0.00 0.00 0.00 50 1015.1
20260901040044 59 60 2.0 5.0 0.00 0.00 0.00 50 1015.0
20260901034546 59 62 3.0 5.0 0.00 0.00 0.00 49 1014.7
20260901033048 62 40 3.0 4.0 0.00 0.00 0.00 46 1014.5
20260901031546 62 73 2.0 5.0 0.00 0.00 0.00 44 1014.4
20260901030045 64 104 1.0 5.0 0.00 0.00 0.00 42 1014.4
20260901024546 67 95 2.0 5.0 0.00 0.00 0.00 38 1014.2
20260901023044 68 105 2.0 7.0 0.00 0.00 0.00 36 1014.3
20260901021544 70 130 1.0 7.0 0.00 0.00 0.00 34 1014.1
20260901020043 71 175 2.0 6.0 0.00 0.00 0.00 32 1014.3
20260901014548 73 168 1.0 4.0 0.00 0.00 0.00 30 1014.3
20260901013043 74 0 1.0 2.0 0.00 0.00 0.00 29 1014.3
20260901011544 73 251 1.0 5.0 0.00 0.00 0.00 29 1014.4
20260901010047 74 245 2.0 7.0 0.00 0.00 0.00 29 1014.6
20260901004546 74 253 4.0 10.0 0.00 0.00 0.00 29 1014.7
20260901003042 73 239 5.0 9.0 0.00 0.00 0.00 29 1014.7
20260901001544 73 268 6.0 11.0 0.00 0.00 0.00 29 1014.7
20260901000045 74 270 6.0 11.0 0.00 0.00 0.00 30 1014.7
20260831234552 73 210 3.0 14.0 0.00 0.00 0.00 30 1014.7
20260831233047 73 323 3.0 11.0 0.00 0.00 0.00 31 1014.8
20260831231542 74 236 10.0 14.0 0.00 0.00 0.00 31 1014.8
20260831230043 73 291 4.0 14.0 0.00 0.00 0.00 32 1015.0
20260831224546 74 237 8.0 14.0 0.00 0.00 0.00 32 1014.9
20260831223052 73 0 2.0 10.0 0.00 0.00 0.00 33 1015.0
20260831221543 73 283 8.0 16.0 0.00 0.00 0.00 33 1015.0
20260831220042 73 258 2.0 11.0 0.00 0.00 0.00 35 1015.1
20260831214557 72 309 5.0 14.0 0.00 0.00 0.00 35 1015.2
20260831213043 72 223 8.0 18.0 0.00 0.00 0.00 34 1015.4
20260831211545 71 253 5.0 20.0 0.00 0.00 0.00 35 1015.2
20260831210045 71 224 9.0 16.0 0.00 0.00 0.00 35 1015.4
20260831204544 71 247 7.0 19.0 0.00 0.00 0.00 36 1015.5
20260831203041 70 192 7.0 16.0 0.00 0.00 0.00 37 1015.6
20260831201553 70 243 10.0 17.0 0.00 0.00 0.00 37 1015.8
20260831200044 70 270 8.0 21.0 0.00 0.00 0.00 38 1015.8
20260831194545 69 243 11.0 20.0 0.00 0.00 0.00 39 1015.9
20260831193112 69 281 9.0 15.0 0.00 0.00 0.00 39 1015.9
20260831191540 68 252 11.0 17.0 0.00 0.00 0.00 40 1016.1
20260831190049 68 283 9.0 16.0 0.00 0.00 0.00 41 1016.3
20260831184540 67 289 5.0 14.0 0.00 0.00 0.00 42 1016.2
20260831183044 67 248 5.0 15.0 0.00 0.00 0.00 43 1016.5
20260831181551 66 287 11.0 16.0 0.00 0.00 0.00 43 1016.6
20260831180044 66 291 10.0 18.0 0.00 0.00 0.00 45 1016.5
20260831174546 65 287 7.0 18.0 0.00 0.00 0.00 46 1016.6
20260831173046 65 290 9.0 18.0 0.00 0.00 0.00 46 1016.7
20260831171543 65 268 9.0 15.0 0.00 0.00 0.00 47 1016.8
20260831170045 64 291 13.0 18.0 0.00 0.00 0.00 48 1016.8
20260831164603 64 269 11.0 18.0 0.00 0.00 0.00 49 1016.6
20260831163044 63 287 13.0 18.0 0.00 0.00 0.00 50 1016.6
20260831161600 62 298 12.0 19.0 0.00 0.00 0.00 52 1016.6
20260831160059 61 310 13.0 18.0 0.00 0.00 0.00 53 1016.5
20260831154613 62 310 15.0 20.0 0.00 0.00 0.00 53 1016.5
20260831153044 61 301 13.0 19.0 0.00 0.00 0.00 54 1016.5
20260831151548 61 296 14.0 19.0 0.00 0.00 0.00 52 1016.2
20260831150050 61 293 15.0 21.0 0.00 0.00 0.00 52 1016.0
20260831144544 60 295 14.0 26.0 0.00 0.00 0.00 52 1015.9
20260831143044 59 284 13.0 30.0 0.00 0.00 0.00 53 1015.7
20260831141540 58 256 10.0 20.0 0.00 0.00 0.00 54 1015.6
20260831140045 57 268 11.0 19.0 0.00 0.00 0.00 56 1015.5
20260831134552 54 279 10.0 15.0 0.00 0.00 0.00 62 1015.2
20260831133045 51 278 4.0 7.0 0.00 0.00 0.00 67 1015.0
20260831131555 51 274 5.0 12.0 0.00 0.00 0.00 67 1015.0
20260831130047 51 298 9.0 12.0 0.00 0.00 0.00 65 1014.6
20260831124544 52 306 9.0 17.0 0.00 0.00 0.00 64 1014.6
20260831123046 53 277 14.0 21.0 0.00 0.00 0.00 63 1014.3
20260831121538 52 262 13.0 18.0 0.00 0.00 0.00 65 1014.2
20260831120048 52 274 15.0 20.0 0.00 0.00 0.00 66 1014.1
20260831114541 49 285 12.0 18.0 0.00 0.00 0.00 72 1014.1
20260831113046 48 285 9.0 15.0 0.00 0.00 0.00 73 1014.1
20260831111551 48 283 10.0 14.0 0.00 0.00 0.00 72 1014.1
20260831110042 49 259 9.0 13.0 0.00 0.00 0.00 72 1014.1
20260831104548 48 264 10.0 14.0 0.00 0.00 0.00 74 1014.0
20260831103044 48 263 8.0 12.0 0.00 0.00 0.00 73 1014.0
20260831101548 48 258 8.0 14.0 0.00 0.00 0.00 73 1013.9
20260831100104 47 268 5.0 8.0 0.00 0.00 0.00 76 1013.8
20260831094548 47 260 4.0 7.0 0.00 0.00 0.00 75 1013.7
20260831093057 47 263 1.0 4.0 0.00 0.00 0.00 76 1013.6
20260831091546 47 269 4.0 9.0 0.00 0.00 0.00 76 1013.7
20260831090056 46 252 5.0 10.0 0.00 0.00 0.00 77 1013.5
20260831084544 47 208 7.0 12.0 0.00 0.00 0.00 75 1013.1
20260831083100 49 206 6.0 14.0 0.00 0.00 0.00 72 1013.1
20260831081556 48 264 7.0 11.0 0.00 0.00 0.00 74 1012.7
20260831080120 48 258 6.0 11.0 0.00 0.00 0.00 74 1012.6
20260831074544 48 227 9.0 14.0 0.00 0.00 0.00 74 1012.7
20260831073047 50 201 11.0 16.0 0.00 0.00 0.00 71 1012.5
20260831071547 51 246 11.0 20.0 0.00 0.00 0.00 68 1012.4
20260831070046 51 260 14.0 21.0 0.00 0.00 0.00 68 1012.1
20260831064542 51 256 13.0 21.0 0.00 0.00 0.00 67 1012.1
20260831063055 51 274 14.0 20.0 0.00 0.00 0.00 68 1012.3
20260831061545 52 260 12.0 19.0 0.00 0.00 0.00 68 1012.3